星链-30341 (STARLINK-30341 )

导读

STARLINK-30341是美国太空探索技术公司SpaceX星链卫星网络中的一员,于2023年8月27日发射升空,属于星链项目批量部署的卫星之一。该卫星主要为全球提供低延迟、高速率的宽带互联网服务,尤其覆盖偏远地区与网络基础设施薄弱区域,依托低轨轨道设计,保障网络覆盖的稳定性与信号传输效率。

Basic Information
目录编号:
57714
目录名称:
STARLINK-30341
国际标识:
2023-129S
轨道中心:
EARTH
卫星名称:
星链-30341
卫星全名:
星链-30341 (STARLINK-30341 )
卫星状态:
在轨 (已飞行1105 天)
发射日期:
2023-08-27 UTC
国别 :
美国 (US)
星等 :
--
Orbit Information
数据来源 国际轨道数据 AOE轨道数据
星历时间 2026-09-05T12:13:52+0800
5小时前
查看轨道信息
2026-09-03T23:00:00+0800
1天前
查看轨道信息
半长轴 6861.199km 6861.162km
偏心率 0.0001388 0.000166
轨道倾角 43.002° 43.000°
近地点辐角 264.009° 222.740°
升交点赤经 187.577° 196.339°
平近点角 96.060° 236.318°
近地点 482.109km 481.886km
远地点 484.015km 484.164km
周期 94.267分钟 94.266分钟
每日圈数 15.27576 15.275883
Detailed Information
固有亮度:
5
最大亮度:
0.3
卫星平台:
Starlink v2.0 mini
覆盖范围:
全球
运营商:
太空探索技术公司
运营商所在国:
美国
制造商(研发单位):
太空探索技术公司
制造商所在国:
美国
使用方式:
暂无
Satellite Introduction
星链(Starlink)计划是由太空探索技术公司(SpaceX)提出的一个巨型低轨卫星互联网星座项目,计划在2019年至2024年间在太空搭建由约1.2万颗卫星组成的“星链”网络,其中1584颗将部署在地球上空550千米处的近地轨道,并从2020年开始工作。该卫星仍在工作。
2D Orbit Map
3D Orbit Map
Orbit Altitude Analysis Chart
Orbit Inclination Analysis Chart
Orbit Comprehensive Analysis Chart
View Comprehensive Chart
Conjunction Data List
Event ID Objects TCA Miss Dist (km) Collision Risk Probability Collision Risk Index (CRI) Action
CDM_260907-015105-771406-687521
2026-09-07T
01:51:39+0000
0.116 km
中距离
1.045775E-3 极高风险 0.95
CDM_260907-133705-771406-687521
2026-09-07T
13:37:48+0000
0.921 km
远距离
2.673856E-5 中风险 0.64
CDM_260906-052105-771406-453223
OBJECT E (64532)
2026-09-06T
05:21:57+0000
2.283 km
极远距离
2.058307E-6 低风险 0.41
CDM_260904-042605-771406-266022
2026-09-04T
04:26:08+0000
2.793 km
极远距离
1.394603E-6 低风险 0.38
CDM_260907-032505-771406-687521
2026-09-07T
03:25:49+0000
2.651 km
极远距离
1.243938E-6 低风险 0.37
CDM_260907-001705-771406-687521
2026-09-07T
00:17:30+0000
2.823 km
极远距离
1.136832E-6 低风险 0.36